El Arish, Egypt

8:04 AM EET on May 28, 2017 (GMT +0200)
El Arish

Weather History for HEAR - December, 2012

Change the Weather History Date:

Tuesday, December 11, 2012

  Actual Average Record
Temperature  
Mean Temperature 60 °F -  
Max Temperature 68 °F 68 °F - ()
Min Temperature 53 °F 47 °F - ()
Degree Days  
Heating Degree Days 4    
Growing Degree Days 10 (Base 50)    
Moisture  
Dew Point 41 °F    
Average Humidity 51    
Maximum Humidity 72    
Minimum Humidity 27    
Precipitation  
Precipitation 0.00 in 0.03 in - ()
Sea Level Pressure  
Sea Level Pressure 30.03 in    
Wind  
Wind Speed 8 mph ()    
Max Wind Speed 15 mph    
Max Gust Speed -    
Visibility 4.0 miles    
Events      
T = Trace of Precipitation, MM = Missing Value Source: Averaged Metar Reports

Daily Weather History Graph

Daily Weather History Graph

Search for Another Location

Airport or City:

Trip Planner

Search our weather history database for the weather conditions in past years. The results will help you decide how hot, cold, wet, or windy it might be!

Date:

Astronomy

Dec. 11, 2012 Rise Set
Actual Time 6:33 AM EET 4:43 PM EET
Civil Twilight 6:06 AM EET 5:09 PM EET
Nautical Twilight 5:36 AM EET 5:39 PM EET
Astronomical Twilight 5:06 AM EET 6:09 PM EET
Moon 4:08 AM EET (12/11) 3:00 PM EET (12/11)
Length of Visible Light 11h 03m
Length of Day
10h 10m
Waning Crescent, 6% of the Moon is Illuminated
Dec 11
Waning Crescent
Dec 13
New
Dec 20
First Quarter
Dec 28
Full
Jan 5
Last Quarter

Hourly Weather History & Observations

Time (EET) Temp. Dew Point Humidity Pressure Visibility Wind Dir Wind Speed Gust Speed Precip Events Conditions
12:00 AM 57.2 °F 37.4 °F 48% 29.95 in - WSW 10.4 mph - N/A   Clear
1:00 AM 55.4 °F 35.6 °F 47% 29.95 in - SW 8.1 mph - N/A   Clear
2:00 AM 55 °F 35 °F 34% 29.97 in 6 mi WSW 10.4 mph - -  
2:00 AM 55.4 °F 35.6 °F 47% 29.95 in - WSW 4.6 mph - N/A   Clear
3:00 AM 55.4 °F 33.8 °F 44% 29.98 in - WSW 10.4 mph - N/A   Clear
4:00 AM 55.4 °F 33.8 °F 44% 29.98 in 5.0 mi WSW 12.7 mph - N/A   Unknown
5:00 AM 55.4 °F 33.8 °F 44% 29.98 in 3.7 mi WSW 11.5 mph - N/A   Unknown
6:00 AM 55.4 °F 35.6 °F 47% 29.98 in 3.7 mi WSW 10.4 mph - N/A   Unknown
7:00 AM 55.4 °F 35.6 °F 47% 30.01 in 3.7 mi WSW 10.4 mph - N/A   Unknown
8:00 AM 57 °F 38 °F 38% 30.05 in 2 mi WSW 10.4 mph - -   Widespread Dust
8:00 AM 57.2 °F 39.2 °F 51% 30.04 in 2.5 mi WSW 10.4 mph - N/A   Haze
9:00 AM 59.0 °F 41.0 °F 51% 30.06 in 1.9 mi WSW 12.7 mph - N/A   Haze
10:00 AM 62.6 °F 42.8 °F 48% 30.06 in 1.9 mi West 12.7 mph - N/A   Sand
11:00 AM 64.4 °F 42.8 °F 45% 30.06 in 1.9 mi WSW 15.0 mph - N/A   Sand
12:00 PM 66.2 °F 42.8 °F 43% 30.04 in 1.9 mi West 12.7 mph - N/A   Sand
1:00 PM 68.0 °F 42.8 °F 40% 30.01 in 3.7 mi West 12.7 mph - N/A   Unknown
2:00 PM 68 °F 42 °F 27% 30.04 in 4 mi West 10.4 mph - -   Widespread Dust
2:00 PM 68.0 °F 41.0 °F 37% 30.04 in 3.7 mi West 10.4 mph - N/A   Unknown
3:00 PM 68.0 °F 42.8 °F 40% 30.04 in 6.2 mi West 10.4 mph - N/A   Scattered Clouds
4:00 PM 64.4 °F 48.2 °F 56% 30.04 in 6.2 mi WNW 8.1 mph - N/A   Mostly Cloudy
5:00 PM 62.6 °F 50.0 °F 63% 30.06 in - WSW 3.5 mph - N/A   Clear
6:00 PM 59.0 °F 50.0 °F 72% 30.06 in - Calm Calm - N/A   Clear
7:00 PM 55.4 °F 46.4 °F 72% 30.09 in - SSE 5.8 mph - N/A   Clear
8:00 PM 53 °F 44 °F 62% 30.10 in 6 mi South 2.3 mph - -  
8:00 PM 53.6 °F 44.6 °F 72% 30.09 in - South 2.3 mph - N/A   Clear
9:00 PM 53.6 °F 44.6 °F 72% 30.09 in - South 3.5 mph - N/A   Clear
10:00 PM 57.2 °F 44.6 °F 63% 30.09 in 6.2 mi SW 3.5 mph - N/A   Scattered Clouds
11:00 PM 57.2 °F 46.4 °F 67% 30.09 in 6.2 mi SW 2.3 mph - N/A   Partly Cloudy